Location: Newark
(37.8444°N, 127.0614°E)
Time: 14:24:17
(UTC+00:00)

XW-2F - Visible Passes

Search period start: 21 January 2020 00:00
Search period end: 31 January 2020 00:00
Orbit: 502 x 523 km, 97.5° (Epoch: 21 January)

Date Brightness Start Highest point End Pass type
(mag) Time Alt. Az. Time Alt. Az. Time Alt. Az.
21 Jan ? 09:53:50 10° SW 09:56:00 15° W 09:58:12 10° WNW visible
21 Jan ? 21:24:51 10° NNE 21:28:30 57° E 21:32:07 10° S visible
22 Jan ? 09:37:12 10° SSW 09:40:13 23° W 09:43:15 10° NW visible
22 Jan ? 21:09:22 10° NNE 21:12:47 34° E 21:16:09 10° SSE visible
23 Jan ? 09:21:00 10° SSW 09:24:29 36° W 09:27:58 10° NNW visible
23 Jan ? 20:54:05 10° NE 20:57:01 22° E 20:59:55 10° SSE visible
24 Jan ? 20:39:12 10° ENE 20:41:14 14° E 20:43:14 10° SE visible
24 Jan ? 22:12:00 10° N 22:15:18 31° WNW 22:18:35 10° SW visible
25 Jan ? 21:56:05 10° N 21:59:41 50° WNW 22:03:14 10° SSW visible
26 Jan ? 21:40:19 10° N 21:44:01 85° WNW 21:47:42 10° SSW visible
27 Jan ? 09:53:41 10° SW 09:55:51 15° W 09:58:01 10° WNW visible
27 Jan ? 21:24:40 10° NNE 21:28:19 57° E 21:31:56 10° S visible
28 Jan ? 09:37:03 10° SSW 09:40:03 23° W 09:43:04 10° NW visible
28 Jan ? 21:09:11 10° NNE 21:12:35 34° E 21:15:58 10° SSE visible
29 Jan ? 09:20:50 10° SSW 09:24:18 36° W 09:27:46 10° NNW visible
29 Jan ? 20:53:54 10° NE 20:56:49 22° E 20:59:44 10° SSE visible
30 Jan ? 20:39:02 10° ENE 20:41:02 14° E 20:43:01 10° SE visible
